Regional Weather Roundup
Issued by NWS Midland/Odessa, TX

Skip options and go directly to product.
Home | Oldest Version | Next Version | Current Version | All | Text Only | Save Text | Print | Product List | Glossary On

Skip product version selection by date and time.   
822
ASUS44 KMAF 232201
RWRMAF
MIDLAND AREA WEATHER ROUNDUP
NATIONAL WEATHER SERVICE MIDLAND TX
500 PM CDT SAT JUL 23 2016

...IN SOUTHWEST TEXAS AND SOUTHEAST NEW MEXICO...

CITY           SKY/WX    TMP DP  RH WIND       PRES   REMARKS
ALPINE         SUNNY     95  49  20 CALM      30.09F
ANDREWS        FAIR      98  54  22 SE3G16    29.98S
ARTESIA        SUNNY    100  45  15 SE13G18   29.95F
BIG SPRING     SUNNY     98  59  27 SE9G16    29.97F
CARLSBAD       PTSUNNY  103  40  11 E13       29.92F
DRYDEN           N/A    100  59  25 E12G24    29.89F HX 100
FORT STOCKTON  SUNNY    100  54  21 SE14G23   29.93F
GUAD PASS      SUNNY     97  41  14 VRB3      30.12F
HOBBS          SUNNY     95  46  18 SE7G17    30.00F
MARFA          SUNNY     94  51  23 VRB5      30.09F
MIDLAND AIRPK  MOSUNNY  100  54  21 S12G20    29.96F
MIDLAND INTL   SUNNY    100  55  22 SE14G23   29.95F
ODESSA         SUNNY     99  55  23 S13       29.96F
PECOS          SUNNY    105  48  14 SE8       29.88F HX 101
PRESIDIO       FAIR     102  52  18 E3        29.89F HX 100
SEMINOLE       SUNNY     98  49  19 S13G18    29.99F
SNYDER           N/A     97  61  30 S13       29.95F
WINK           SUNNY    103  51  17 S14G20    29.90F HX 100
$$
...OTHER STATIONS IN TEXAS...

CITY           SKY/WX    TMP DP  RH WIND       PRES   REMARKS
ABILENE        SUNNY     98  61  29 S12G18    29.92F
AMARILLO       SUNNY     99  51  19 S20G25    29.98F
AUSTIN         MOSUNNY  100  68  35 SE9       29.89F HX 105
BROWNSVILLE    MOSUNNY   94  76  55 E16G24    29.90F HX 106
CORPUS CHRISTI MOSUNNY   93  72  50 SE16      29.90F HX 101
DALLAS FTW     MOSUNNY   99  68  36 S12       29.88F HX 104
DEL RIO        SUNNY    102  61  25 SE14G25   29.84F HX 103
EL PASO        MOSUNNY  103  40  11 SW3       29.95F
HOUSTON INT    PTSUNNY   96  74  48 E10       29.91F HX 107
LUBBOCK        MOSUNNY   98  53  22 S12G22    29.98F
SAN ANGELO     SUNNY     99  60  27 E7        29.91F
SAN ANTONIO    MOSUNNY   97  66  36 VRB6      29.91F HX 100
WACO           SUNNY    100  64  30 SE13      29.89F HX 102
WICHITA FALLS  NOT AVBL
$$
...OTHER LOCATIONS IN NEW MEXICO...

CITY           SKY/WX    TMP DP  RH WIND       PRES   REMARKS
ALAMAGORDO     SUNNY    102  41  12 SW6       29.97F
ALBUQUERQUE    MOSUNNY  100  41  13 N9        30.05F
CANNON AFB     SUNNY     99  43  15 S9        30.01F
CLOVIS         SUNNY     99  45  15 SE13G21   30.02F
HOLLOMAN AFB   NOT AVBL
ROSWELL        SUNNY    102  44  14 SE10G17   29.95F
RUIDOSO          N/A     86  37  17 CALM      30.22F
SANTA FE       PTSUNNY   99  39  12 W10G17    30.13F
TRUTH OR CONSE SUNNY    100  39  12 VRB3      30.00F
TUCUMCARI      SUNNY    105  39  10 SW9G18    29.94F
$$

USA.gov is the U.S. government's official web portal to all federal, state and local government web resources and services.